Starlink 5167

operational
NORAD ID: 54058 Int'l Des: 2022-136 Owner: SPXS Country: US Constellation: starlink
LEOCIRCULAR

Über Starlink 5167

Beschreibung wird geladen...

Live-Position

3D-Globus wird geladen...

Nächste Überflüge

Höhenverlauf

Altitude vs Time

uPlot chart will show altitude changes over time

Zweizeiliger Elementsatz

1 54058U 22136H 26034.57483547 -.00002305 00000-0 -12686-3 0 9992
2 54058 53.2169 137.2766 0001357 88.5796 271.5351 15.08826773181697
Epoch: 3. Feb. 2026 • Age: 9 hours

Aktueller Status

Höhe 540.6 km
Geschwindigkeit 7.60 km/s
Subsatellitenpunkt 28.00°N, 177.45°W
Startdatum 20. Okt. 2022
Alter 3.2 years
Typ internet

Technische Details

Klassifizierung Payload
Masse 305.00 kg
Trockenmasse 290.00 kg
Gesamtmasse 305.00 kg
Länge 0.20 m
Durchmesser 2.80 m
Spannweite 9.00 m
Form Box + pan
Hersteller SPXS
Bus-Typ Starlink
Phasenstatus In Orbit
Besitzer/Staat SPXS/US

Große Konstellationen

Loading constellations...